When you browse on this site, cookies collect data to enhance your experience and personalize the content and advertising you see.
Visit our Privacy Policy to learn more. By continuing to use the site, you agree to this use of cookies and data.
  • In Hungary
  • List of Countries
  • For 7 days
  • Water Temperature
  • Weather Map
  • News
  • Weather Widgets
  • user-avatar
    Login

    Hourly Weather Churashevo

    Today, 18 October, Friday

    Time Temperature Precipitation Wind Pressure Humidity
    00:00 +2°C° 0.5 mm 6 mps 746 mmHg 88%
    01:00 +2°C° 0.5 mm 5 mps 745 mmHg 88%
    02:00 +3°C° 0.3 mm 5 mps 745 mmHg 91%
    03:00 +3°C° 0.3 mm 5 mps 745 mmHg 93%
    04:00 +4°C° 0.3 mm 4 mps 745 mmHg 96%
    05:00 +4°C° 1 mm 4 mps 745 mmHg 96%
    06:00 +4°C° 1 mm 4 mps 744 mmHg 97%
    07:00 +4°C° 1 mm 4 mps 744 mmHg 97%
    08:00 +4°C° 1.1 mm 3 mps 745 mmHg 97%
    09:00 +4°C° 1.1 mm 3 mps 745 mmHg 98%
    10:00 +5°C° 1.1 mm 2 mps 745 mmHg 98%
    11:00 +5°C° 1.1 mm 2 mps 745 mmHg 98%
    12:00 +6°C° 1.1 mm 1 mps 746 mmHg 98%
    13:00 +5°C° 1.1 mm 1 mps 746 mmHg 98%
    14:00 +5°C° 0.5 mm 1 mps 746 mmHg 98%
    15:00 +5°C° 0.5 mm 1 mps 746 mmHg 97%
    16:00 +4°C° 0.5 mm 2 mps 746 mmHg 97%
    17:00 +2°C° 0.7 mm 3 mps 746 mmHg 97%
    18:00 +2°C° 0.7 mm 3 mps 746 mmHg 96%
    19:00 0°C° 0.7 mm 4 mps 746 mmHg 96%
    20:00 0°C° 0.7 mm 5 mps 747 mmHg 96%
    21:00 0°C° 0.7 mm 5 mps 747 mmHg 96%
    22:00 -1°C° 0.7 mm 5 mps 747 mmHg 95%
    23:00 -2°C° 0.1 mm 6 mps 748 mmHg 93%

    Tomorrow, 19 October, Saturday

    Time Temperature Precipitation Wind Pressure Humidity
    00:00 -2°C° 0.1 mm 6 mps 748 mmHg 91%
    01:00 -3°C° 0.1 mm 6 mps 748 mmHg 89%
    02:00 -3°C° 0 mm 6 mps 749 mmHg 87%
    03:00 -3°C° 0 mm 6 mps 750 mmHg 84%
    04:00 -4°C° 0 mm 6 mps 750 mmHg 82%
    05:00 -4°C° 0 mm 6 mps 751 mmHg 82%
    06:00 -5°C° 0 mm 6 mps 751 mmHg 81%
    07:00 -6°C° 0 mm 5 mps 752 mmHg 81%
    08:00 -5°C° 0 mm 5 mps 752 mmHg 78%
    09:00 -4°C° 0 mm 6 mps 753 mmHg 75%
    10:00 -3°C° 0 mm 6 mps 753 mmHg 72%
    11:00 -2°C° 0 mm 5 mps 754 mmHg 70%
    12:00 -1°C° 0 mm 5 mps 754 mmHg 68%
    13:00 0°C° 0 mm 5 mps 754 mmHg 67%
    14:00 -1°C° 0 mm 5 mps 754 mmHg 68%
    15:00 -1°C° 0 mm 5 mps 754 mmHg 70%
    16:00 -1°C° 0 mm 4 mps 755 mmHg 72%
    17:00 -2°C° 0 mm 4 mps 755 mmHg 74%
    18:00 -3°C° 0 mm 4 mps 755 mmHg 77%
    19:00 -3°C° 0 mm 4 mps 756 mmHg 79%
    20:00 -4°C° 0 mm 4 mps 756 mmHg 80%
    21:00 -4°C° 0 mm 4 mps 756 mmHg 80%
    22:00 -4°C° 0 mm 4 mps 757 mmHg 81%
    23:00 -4°C° 0 mm 3 mps 757 mmHg 81%

    Day after tomorrow, 20 October, Sunday

    Time Temperature Precipitation Wind Pressure Humidity
    00:00 -4°C° 0 mm 3 mps 757 mmHg 81%
    01:00 -4°C° 0 mm 3 mps 757 mmHg 81%
    02:00 -3°C° 0 mm 2 mps 757 mmHg 82%
    03:00 -3°C° 0 mm 2 mps 757 mmHg 83%
    04:00 -1°C° 0 mm 1 mps 757 mmHg 83%
    05:00 -1°C° 0 mm 1 mps 757 mmHg 84%
    06:00 -1°C° 0 mm 1 mps 757 mmHg 85%
    07:00 -1°C° 0 mm 1 mps 757 mmHg 86%
    08:00 0°C° 0 mm 1 mps 757 mmHg 81%
    09:00 +1°C° 0 mm 2 mps 757 mmHg 76%
    10:00 +2°C° 0 mm 2 mps 757 mmHg 71%
    11:00 +3°C° 0 mm 2 mps 757 mmHg 69%
    12:00 +4°C° 0 mm 2 mps 757 mmHg 67%
    13:00 +4°C° 0 mm 3 mps 757 mmHg 65%
    14:00 +4°C° 0 mm 2 mps 757 mmHg 68%
    15:00 +4°C° 0 mm 2 mps 757 mmHg 71%
    16:00 +3°C° 0 mm 2 mps 756 mmHg 74%
    17:00 +2°C° 0 mm 2 mps 756 mmHg 76%
    18:00 +1°C° 0 mm 3 mps 756 mmHg 77%
    19:00 0°C° 0 mm 3 mps 756 mmHg 78%
    20:00 0°C° 0 mm 3 mps 756 mmHg 78%
    21:00 +1°C° 0 mm 3 mps 756 mmHg 78%
    22:00 0°C° 0 mm 4 mps 756 mmHg 77%
    23:00 0°C° 0 mm 4 mps 756 mmHg 77%

    21 October, Monday

    Time Temperature Precipitation Wind Pressure Humidity
    00:00 0°C° 0 mm 4 mps 755 mmHg 76%
    01:00 0°C° 0 mm 4 mps 755 mmHg 75%
    02:00 +1°C° 0 mm 4 mps 755 mmHg 75%
    03:00 +1°C° 0 mm 5 mps 755 mmHg 76%
    04:00 +1°C° 0 mm 5 mps 755 mmHg 76%
    05:00 0°C° 0 mm 5 mps 754 mmHg 77%
    06:00 0°C° 0 mm 5 mps 754 mmHg 77%
    07:00 0°C° 0 mm 5 mps 754 mmHg 78%
    08:00 0°C° 0.1 mm 5 mps 754 mmHg 79%
    09:00 +1°C° 0.1 mm 5 mps 753 mmHg 80%
    10:00 +1°C° 0.1 mm 5 mps 753 mmHg 81%
    11:00 +1°C° 0.6 mm 5 mps 753 mmHg 84%
    12:00 +1°C° 0.6 mm 5 mps 753 mmHg 87%
    13:00 +1°C° 0.6 mm 5 mps 753 mmHg 90%
    14:00 +1°C° 0.4 mm 5 mps 753 mmHg 90%
    15:00 +1°C° 0.4 mm 5 mps 753 mmHg 91%
    16:00 +1°C° 0.4 mm 5 mps 752 mmHg 92%
    17:00 +1°C° 0.1 mm 4 mps 752 mmHg 92%
    18:00 +3°C° 0.1 mm 4 mps 752 mmHg 92%
    19:00 +3°C° 0.1 mm 4 mps 752 mmHg 91%
    20:00 +3°C° 0.2 mm 4 mps 752 mmHg 92%
    21:00 +3°C° 0.2 mm 4 mps 752 mmHg 93%
    22:00 +2°C° 0.2 mm 5 mps 751 mmHg 94%
    23:00 +3°C° 0.2 mm 5 mps 751 mmHg 93%

    22 October, Tuesday

    Time Temperature Precipitation Wind Pressure Humidity
    00:00 +3°C° 0.2 mm 5 mps 751 mmHg 93%
    01:00 +3°C° 0.2 mm 5 mps 750 mmHg 93%
    02:00 +3°C° 0.3 mm 5 mps 750 mmHg 92%
    03:00 +3°C° 0.3 mm 5 mps 749 mmHg 92%
    04:00 +3°C° 0.3 mm 5 mps 749 mmHg 92%
    05:00 +3°C° 0 mm 5 mps 749 mmHg 91%
    06:00 +3°C° 0 mm 6 mps 748 mmHg 90%
    07:00 +3°C° 0 mm 6 mps 748 mmHg 89%
    08:00 +3°C° 0 mm 6 mps 748 mmHg 87%
    09:00 +4°C° 0 mm 6 mps 747 mmHg 86%
    10:00 +4°C° 0 mm 7 mps 746 mmHg 84%
    11:00 +5°C° 0 mm 7 mps 746 mmHg 83%
    12:00 +5°C° 0 mm 7 mps 745 mmHg 83%
    13:00 +6°C° 0 mm 7 mps 744 mmHg 82%
    14:00 +6°C° 0 mm 7 mps 744 mmHg 81%
    15:00 +6°C° 0 mm 7 mps 743 mmHg 79%
    16:00 +6°C° 0 mm 7 mps 742 mmHg 78%
    17:00 +6°C° 0 mm 8 mps 742 mmHg 78%
    18:00 +6°C° 0 mm 8 mps 741 mmHg 77%
    19:00 +6°C° 0 mm 8 mps 741 mmHg 77%
    20:00 +6°C° 1.2 mm 8 mps 740 mmHg 81%
    21:00 +6°C° 1.2 mm 8 mps 739 mmHg 85%
    22:00 +6°C° 1.2 mm 8 mps 739 mmHg 89%
    23:00 +6°C° 1.9 mm 7 mps 739 mmHg 91%

    23 October, Wednesday

    Time Temperature Precipitation Wind Pressure Humidity
    00:00 +7°C° 1.9 mm 6 mps 738 mmHg 92%
    01:00 +7°C° 1.9 mm 6 mps 738 mmHg 94%
    02:00 +6°C° 0.5 mm 5 mps 739 mmHg 93%
    03:00 +6°C° 0.5 mm 4 mps 739 mmHg 92%
    04:00 +5°C° 0.5 mm 3 mps 739 mmHg 92%
    05:00 +5°C° 0.2 mm 3 mps 739 mmHg 93%
    06:00 +5°C° 0.2 mm 3 mps 740 mmHg 93%
    07:00 +4°C° 0.2 mm 3 mps 740 mmHg 94%
    08:00 +4°C° 1.2 mm 3 mps 741 mmHg 94%
    09:00 +4°C° 1.2 mm 4 mps 742 mmHg 94%
    10:00 +2°C° 1.2 mm 5 mps 742 mmHg 94%
    11:00 +2°C° 0.1 mm 5 mps 743 mmHg 87%
    12:00 +2°C° 0.1 mm 5 mps 744 mmHg 79%
    13:00 +2°C° 0.1 mm 5 mps 746 mmHg 72%
    14:00 +2°C° 0 mm 5 mps 746 mmHg 71%
    15:00 +1°C° 0 mm 4 mps 747 mmHg 70%
    16:00 +1°C° 0 mm 4 mps 747 mmHg 70%
    17:00 0°C° 0 mm 4 mps 748 mmHg 72%
    18:00 +1°C° 0 mm 3 mps 748 mmHg 74%
    19:00 0°C° 0 mm 3 mps 749 mmHg 77%
    20:00 0°C° 0 mm 3 mps 749 mmHg 78%
    21:00 0°C° 0 mm 3 mps 749 mmHg 80%
    22:00 0°C° 0 mm 3 mps 750 mmHg 82%
    23:00 0°C° 0 mm 3 mps 750 mmHg 82%
    Show more